Location: Capannuccia
(43.7000°N, 11.3000°E)
Time: 10:25:41
(UTC+00:00)

STARLINK-2726 - Pass Details

Date: 30 July 2021
Orbit: 546 x 548 km, 53.1° (Epoch: 23 September)

Event Time Altitude Azimuth Distance (km) Brightness Sun altitude
Rises 19:18:08 0° 301° (WNW) 2,699 9.9 -6.8°
Reaches altitude 10° 19:20:25 10° 295° (WNW) 1,804 8.0 -7.1°
Maximum altitude 19:24:20 45° 223° (SW) 745 4.4 -7.7°
Drops below altitude 10° 19:28:13 10° 150° (SSE) 1,796 5.7 -8.3°
Enters shadow 19:28:29 - 149° (SSE) 1,896 5.8 -8.3°
